Погода в Минске

Погода в Минске : погода сейчас, прогноз погоды и архив. Всё, что Вы хотите узнать о погоде в Минске!

Хотите узнать прогноз погоды Минск? Тогда Вам сюда: Погода Минск

Поиск расширенной информации на нашем сайте:

Другие новости

Новости СМИ2

Главная страница сайта

Новости сайта

03.07.2017

Напоминаем, что на нашем специализированном сайте Метеоцентр.Азия вы можете получить высокодетализированные автоматические прогнозы погоды по пунктам России, СНГ и мира в авиационном формате (включающие направление и скорость ветра, видимость, явления погоды, количество и форму облачности, нижнюю и верхнюю границу облачности).


Погода в Минске - сегодня

Время (UTC), дата Ветер
(°,м/с) 
Видим.   Явления Облачность Т
(°С)
Тd
(°С)
f(%) Тe
(°С)
Pmin
(гПа)
dP
(гПа)
Po
(мм)
O2
(г/м3)
Тmin Tmax R s Состояние
почвы
09 17.09.17 тихо ()   14000 м    10/8 800 м средняя 
[Sc|Ac trans]
+15.3 +11.9 80 +19  1013.7  -0.6  740  280           
12 17.09.17 тихо ()   14000 м  {дождь}  10/10 450 м 
[Sc]
+15.2 +12.6 84 +20  1012.6  -1.1  740  280      0.1     
15 17.09.17 100 (В) 6000 м  слаб. дождь  10/10 360 м 
[Frnb]
+14.3 +13.8 97 +23  1012  -0.7  739  280         
18 17.09.17 тихо ()   4800 м  слаб. дождь  10/10 300 м 
[Frnb]
+14.8 +14.5 98 +23  1010  -1.9  738  279    +15.6     
00 18.09.17 тихо ()   9000 м  слаб. ливневой дождь{гроза}  10/10 570 м 
[Sc]
+15 +14.9 99 +24  1003.2  -3.4  733  277         
03 18.09.17 170 (Ю) 14000 м  {ливн. осадки, дождь}  10/10 270 м 
[Sc]
+14.3 +14 98 +24  1000.7  -2.5  731  277      12     
06 18.09.17 190 (Ю) 20000 м  {ливн. осадки, дождь}  10/8 420 м средняя 
[Sc|Ac trans]
+13.9 +11.1 83 +17  999.9  -0.8  730  278  +13.8    12     
09 18.09.17 200 (Ю) 4{13}  23000 м  в посл. час дождь  9/9 570 м 
[Sc]
+12.1 +9 81 +12  1000.4  0.3  730  280      0.3     
12 18.09.17 200 (Ю) 3-10{13}  7000 м  слаб. дождь  10/10 420 м 
[Sc]
+11.5 +9.7 89 +12  1000.9  0.4  731  281      0.4     
15 18.09.17 200 (Ю) 6-11{17}  6000 м  слаб. дождь  10/8 300 м средняя 
[Sc|As op]
+11.1 +10.1 94 +12  1001.3  0.4  731  281         
18 18.09.17 240 (ЮЗ) 4-11{14}  16000 м  слаб. дождь  10/10 330 м 
[Sc]
+10.6 +9.6 94 +11  1002.3  0.9  732  282    +13.9     
21 18.09.17 260 (З) 5-12{15}  24000 м  {дождь}  10/10 360 м 
[Sc]
+10 +6.8 80 +9  1006.8  4.3  735  284           
00 19.09.17 270 (З) 5-11{14}  21000 м  {дождь}  10/8 1380 м средняя 
[Sc|Ac trans]
+10.2 +7 81 +9  1009.8  737  285      0.0     
03 19.09.17 270 (З) 4{12}  21000 м    6/6 600 м 
[Sc]
+9.8 +7.4 85 +9  1012.3  2.4  739  286      0.1     
06 19.09.17 270 (З) 21000 м    8/8 800 м 
[Sc]
+10.7 +7.9 83 +12  1014.6  2.3  741  286  +9.3    0.1     
09 19.09.17 270 (З) 2-10{12}  20000 м    10/0 
[Sc]
+11.6 +7.5 76 +12  1016.6  742  286           
12 19.09.17 220 (ЮЗ) 15000 м    10/8 <0100 м средняя 
[Sc|Ac inh]
+14.2 +8.8 70 +15  1017.4  1.1  743  283           
15 19.09.17 тихо ()   21000 м    6/0 средняя, верхняя 
[Ac cuf|Ci]
+15.6 +7.9 60 +16  1017.5  0.2  743  282           
18 19.09.17 тихо ()   15000 м    3/0 средняя 
[Ac lent]
+10.4 +8.3 87 +10  1018.8  0.8  744  287    +16.5       
21 19.09.17 тихо ()   12000 м    8/0 средняя 
[Ac und]
+9.5 +8.3 92 +10  1019.8  0.8  744  288           
00 20.09.17 тихо ()   14000 м    8/0 средняя 
[Ac trans]
+9.2 +8.3 94 +9  1019.7  -0.1  744  289           
03 20.09.17 тихо ()   15000 м    10/0 средняя 
[Ac trans]
+9.9 +8.2 89 +10  1019.7  0.1  744  288           
06 20.09.17 060 (СВ) 8000 м  слаб. дождь  10/8 1380 м средняя 
[Sc|As op]
+10.3 +9.5 95 +12  1020.3  0.6  745  287  +8.8       
09 20.09.17 060 (СВ) 10 км  слаб. дождь  10/10 210 м 
[Frnb|Ns]
+10.9 +10.1 95 +13  1020  -0.2  745  287         
12 20.09.17 070 (В) 15000 м  слаб. дождь  10/10 270 м 
[Sc]
+11.8 +10.5 92 +15  1019  -0.9  744  285      0.0     
Время (UTC), дата Ветер
(°,м/с) 
Видим.   Явления Облачность Т
(°С)
Тd
(°С)
f(%) Тe
(°С)
Pmin
(гПа)
dP
(гПа)
Po
(мм)
O2
(г/м3)
Тmin Tmax R s Состояние
почвы

Для получения пояснительной информации подведите курсор к названию столбца.

ПОГОДА в Минске - архив

Всё, что Вы хотите узнать о погоде в Минске - удобно и подробно!

Выберите нужную дату (начиная с 1 января 2015* года) и нажмите кнопку "Найти".
Будут отображены архивные сводки погоды по пункту Минск, начиная с указанной даты.


Отображать данные в формате CSV (для использования в таблицах Excel)


Внимание! Наш архив погоды предназначен исключительно для личного некоммерческого использования в познавательных целях. Если Вам необходимы официальные справки о состоянии погоды (для производственных, юридических, коммерческих и т.п. целей), обращайтесь в органы Росгидромета.

*Примечание: данная дата относится к архиву по метеостанциям СССР (Россия, СНГ, Балтия).
Архив по метеостанциям Зарубежной Европы и Азии (кроме Китая) хранится 10 дней, по другим регионам земного шара (Китай, Африка, Америка, Австралия, Океания) - 1 день.

Минск - район местоположения метеостанции


Название, широта, долгота, высота метеостанции:
Минск (город) 53.9°ш. 27.6°д. 231 м над ур. моря [Беларусь]

Дополнительная информация

В oтличие oт бoльшинства пoгoдных сайтoв мы публикуем пoдрoбную метеoинфoрмацию в детальнoм прoфессиoнальнoм фoрмате.

Характеристики температуры и влажнoсти вoздуха измеряются на высoте 2 м в тени вдали oт зданий и деревьев.
Скoрoсть ветра измеряется на высoте 10 м (на урoвне рoста челoвека скoрoсть ветра ниже в 1.5-2 раза). Если метеoстанция нахoдится в гoрoде или в лесу, тo скoрoсть ветра занижена на 2-4 м/с пo сравнению с oткрытым местoм. Скoрoсть ветра над акватoриями крупных рек и oзёр, а также на вершинах хoлмoв на 2-5 м/с выше, чем в oбычных услoвиях.
Атмoсфернoе давление в разных тoчках местнoсти мoжет значительнo oтличаться oт давления на метеoстанции, в зависимoсти oт услoвий рельефа (при пoдъёме на 10 м давление пoнижается примернo на 1 мм рт.ст.).